Theta_e
296 297 297 297 297 296 296 296 296 296 297 299 298 298 299 303 301 299 302 308 307 309 311 313 315 317 317 317 318 319 320 320 321 322 321 320 321 323 323 325 327 328 327 330 331 331 331 332 334 337 340 344 349 351 353 353 349 350 352 352 352 351 352 353 355 358 358 358 359 361 360 361 360 359 357 358 358 358 359 357 355 355 354 352 352 355 356
295 295 296 296 295 295 295 295 295 296 297 297 298 298 299 301 302 303 305 309 308 310 311 313 314 317 318 318 320 321 321 319 320 320 320 319 319 320 321 322 323 326 327 328 330 331 332 331 330 332 335 339 344 348 349 350 352 354 351 351 352 352 351 353 356 358 359 360 360 361 360 361 362 361 359 359 357 358 358 358 359 359 358 356 354 353 355
293 294 295 296 294 294 293 294 294 295 296 297 297 297 299 302 303 304 305 307 306 311 314 314 316 317 317 319 318 318 320 320 319 319 319 319 320 320 321 323 322 325 325 326 327 329 331 331 330 329 332 338 343 344 348 349 351 352 354 352 350 351 353 355 356 359 359 360 361 361 362 362 363 362 359 358 359 360 359 359 360 361 358 356 355 354 353
292 292 293 292 295 293 293 293 294 294 294 295 296 298 299 300 300 303 304 303 306 310 314 314 315 315 316 316 316 317 318 319 320 319 319 319 320 321 321 322 323 323 323 324 325 326 328 330 330 329 331 334 338 341 344 349 352 353 351 352 353 353 353 356 357 358 358 362 361 361 362 363 363 364 362 360 359 361 359 358 361 359 357 357 358 355 353
292 293 292 292 292 293 290 292 294 295 296 299 299 300 300 301 302 301 300 302 311 312 314 312 313 313 314 315 315 316 317 319 319 319 318 319 319 320 322 322 323 322 323 324 325 326 327 329 329 330 331 332 334 338 342 345 352 354 353 351 351 356 358 356 357 357 361 360 361 360 362 362 363 363 363 360 359 358 357 359 358 359 360 357 358 357 356
293 292 293 294 292 285 288 298 299 298 296 296 296 296 299 302 303 305 309 310 312 312 311 311 311 311 313 315 316 317 317 317 318 318 319 318 319 320 320 322 323 324 325 325 326 327 328 329 329 329 331 330 332 336 340 345 349 351 352 353 354 354 355 358 359 359 360 359 359 361 362 362 362 361 360 361 358 357 357 359 359 357 357 358 358 359 358
292 294 293 291 285 287 296 301 301 301 300 299 298 300 301 302 304 306 307 308 309 310 311 311 312 313 314 316 315 316 316 317 316 316 318 318 318 319 320 320 322 324 325 326 327 328 327 328 328 328 328 330 331 334 338 341 346 347 349 351 352 352 353 356 359 358 359 359 359 360 362 362 362 361 360 361 359 357 356 356 357 358 357 358 358 358 357
296 293 292 283 285 295 299 300 302 304 303 301 300 299 302 304 305 306 306 307 309 310 310 311 313 314 313 314 316 316 316 316 316 315 316 317 317 318 319 320 321 322 324 325 326 328 330 329 328 328 327 329 330 332 337 339 342 343 344 344 342 343 348 351 355 356 357 358 360 360 361 361 362 361 361 361 360 359 358 356 356 356 358 359 358 357 357
290 291 291 290 297 295 296 296 298 299 299 299 298 295 300 306 306 307 306 307 308 307 309 311 312 313 313 312 314 316 314 315 315 315 316 316 317 318 319 320 320 322 324 324 326 328 328 328 329 330 329 328 329 331 334 337 339 341 341 340 340 340 340 341 344 349 350 352 357 359 362 362 362 360 360 360 361 362 359 357 354 353 356 357 360 359 358
296 293 288 290 289 286 293 299 305 306 306 305 305 301 300 305 306 307 307 307 306 307 308 308 311 312 310 306 309 314 315 314 314 315 316 317 318 317 318 319 320 322 322 323 324 325 325 327 327 329 331 329 329 331 332 334 339 339 338 337 338 339 338 340 340 340 342 347 353 356 358 358 358 358 358 358 358 360 358 357 355 353 355 356 358 360 359
294 292 289 287 285 290 301 301 302 304 305 304 305 297 294 305 307 305 307 306 307 306 306 307 309 308 304 305 308 312 313 313 313 313 314 315 317 317 317 317 317 318 320 322 322 323 323 325 326 328 329 329 327 328 330 331 333 333 334 335 336 337 338 340 338 340 342 343 346 353 356 356 357 357 357 358 358 358 357 358 357 358 357 356 356 359 359
294 292 289 287 293 289 301 303 303 303 307 302 303 290 291 303 307 307 306 306 306 306 308 308 307 306 302 303 307 310 311 312 312 313 313 313 314 315 316 317 319 320 321 321 320 319 319 322 325 326 326 327 329 328 327 328 329 328 329 331 336 338 339 340 340 340 341 342 343 345 351 357 359 358 358 357 357 356 357 357 357 357 357 357 356 358 361
293 291 291 294 295 302 305 303 305 305 304 302 293 287 299 305 306 308 307 306 305 307 306 307 304 308 310 310 310 311 310 310 311 312 313 313 314 314 315 316 320 318 318 318 318 319 320 322 322 324 325 326 328 329 328 328 328 328 329 332 334 336 337 337 339 341 342 343 343 345 347 350 355 359 358 358 358 358 357 358 359 358 359 360 359 358 358
292 293 291 291 295 302 305 305 305 306 301 290 291 302 307 307 306 306 305 304 305 305 305 306 306 308 309 309 309 309 309 309 310 310 311 312 312 314 315 317 317 317 317 318 319 318 320 321 321 322 323 324 327 329 328 327 329 330 331 332 333 334 334 336 338 340 341 342 344 344 347 349 350 354 360 360 360 360 359 359 361 361 364 363 359 356 357
294 295 291 289 285 301 306 305 303 305 295 298 303 305 307 305 306 305 305 305 305 305 304 305 306 306 306 307 307 307 308 308 309 310 310 311 311 311 313 314 315 315 315 316 317 318 318 319 321 322 322 324 326 327 328 330 330 330 331 332 332 333 334 334 337 339 341 341 342 343 345 348 349 348 352 358 362 362 360 360 360 359 359 359 356 353 353
290 290 287 288 297 303 307 304 298 303 303 307 307 304 304 306 305 306 306 306 307 306 305 305 305 306 306 306 307 308 308 308 309 310 311 312 312 312 312 312 313 314 314 315 315 318 319 320 321 322 322 323 325 326 327 331 331 331 332 331 332 331 332 332 333 336 339 340 340 342 344 346 349 348 348 351 355 360 360 358 357 356 356 355 353 352 351
294 290 296 302 303 306 307 307 306 307 310 310 309 306 305 305 306 308 305 305 307 307 306 306 306 305 306 306 306 306 307 307 308 309 310 311 311 311 312 312 315 315 314 314 314 316 318 321 321 322 323 322 323 324 327 330 330 331 331 331 331 330 330 331 332 333 335 339 340 339 341 343 345 347 349 350 350 355 357 356 356 355 354 353 352 351 351
303 304 304 305 303 304 306 309 308 308 307 308 306 306 305 307 307 307 306 306 306 306 307 305 305 306 306 306 307 307 307 307 308 310 310 311 313 313 313 313 314 315 314 314 313 313 315 318 319 321 321 322 322 323 325 328 330 329 330 331 331 330 330 330 330 331 332 334 339 341 341 342 345 347 347 347 349 353 354 354 355 354 353 353 351 351 352
296 291 304 302 302 304 305 306 308 309 309 309 309 308 307 307 309 307 308 307 307 306 306 306 305 305 306 306 306 307 307 307 308 308 310 311 312 312 313 314 315 314 315 313 313 313 313 316 318 319 319 319 322 325 325 324 325 327 329 329 329 330 329 328 330 331 332 332 334 337 339 341 342 345 348 349 349 350 353 353 354 353 352 351 351 352 352
297 296 303 304 306 307 306 306 306 306 308 308 309 309 310 310 310 309 308 308 307 307 305 306 306 306 306 305 306 305 306 306 307 308 309 310 311 313 314 315 315 314 313 314 315 315 315 316 317 318 318 319 320 322 323 323 323 326 327 327 326 327 328 328 328 329 330 331 332 335 337 340 339 340 344 347 348 349 351 353 353 353 352 352 352 353 354
300 303 304 305 307 305 305 306 307 308 308 309 309 309 309 309 308 308 308 308 307 306 306 307 306 305 306 306 307 305 305 306 307 308 309 310 311 312 312 313 314 313 313 313 314 314 315 317 317 317 318 319 320 322 324 325 325 326 326 325 325 325 326 327 326 329 328 329 330 331 334 337 339 340 341 342 343 347 352 354 356 356 353 354 356 358 359
296 297 301 304 299 298 303 305 306 308 309 309 309 310 309 309 308 308 308 307 308 308 307 307 306 305 305 306 306 305 305 306 307 308 309 309 310 310 312 312 313 313 313 313 313 313 314 316 317 318 319 319 321 322 323 325 326 327 327 326 326 324 325 326 326 326 327 327 327 329 330 332 334 337 336 322 330 340 340 335 327 320 318 337 345 347 346
295 302 304 306 305 304 305 306 307 309 310 310 308 308 308 309 309 309 308 307 308 308 308 308 306 306 305 305 306 305 305 306 307 308 308 307 308 309 310 310 311 311 312 313 313 313 313 315 316 317 319 320 320 322 323 323 325 326 326 324 323 323 325 326 327 328 327 326 328 330 331 331 333 334 336 340 314 311 320 326 323 316 312 310 311 314 332
304 306 306 307 306 303 305 307 308 308 310 310 308 309 309 309 309 309 309 309 307 307 308 308 307 306 305 305 305 305 305 306 307 307 308 308 309 309 310 309 310 311 311 311 312 313 313 314 314 316 317 319 320 321 322 322 325 326 326 323 322 322 324 325 326 328 329 329 330 329 329 331 332 332 333 334 338 323 309 309 311 307 306 306 306 308 309
301 307 308 309 308 307 308 308 309 310 311 310 308 309 309 309 309 309 309 309 309 308 306 306 307 307 306 306 306 306 305 306 306 307 308 309 308 308 309 310 310 311 311 311 312 312 313 314 314 315 316 317 320 320 322 323 325 324 324 324 322 323 324 324 324 326 327 329 329 329 329 329 330 331 331 331 331 333 335 315 308 308 308 306 306 306 307
306 307 308 309 309 308 309 308 308 309 310 310 309 310 310 309 310 310 309 310 309 308 307 306 305 307 307 306 306 306 306 306 307 308 307 307 307 308 308 309 310 311 311 311 311 312 312 313 314 314 315 316 318 320 320 321 321 322 323 323 323 322 322 323 323 323 325 327 329 329 329 329 329 328 329 330 330 332 332 335 338 326 310 306 305 306 305
308 307 307 306 305 306 307 305 305 309 309 310 309 310 310 310 309 309 310 310 309 308 307 307 307 307 307 307 307 307 305 306 307 307 307 306 307 307 308 310 310 311 311 310 310 311 312 312 313 313 314 315 317 319 320 319 320 322 323 322 321 322 323 323 323 323 324 324 326 328 329 328 328 328 329 330 331 330 330 330 331 333 338 345 323 306 325
309 310 308 303 303 305 308 309 309 309 309 310 309 309 310 310 309 309 308 308 307 306 306 307 306 306 305 306 306 305 306 305 305 306 306 306 307 308 309 309 309 309 309 310 310 311 312 312 311 312 313 316 317 319 320 319 321 321 321 321 320 320 321 321 322 322 322 323 324 325 326 326 328 327 327 328 328 329 329 331 331 333 336 341 346 331 314
310 310 311 311 311 311 312 312 310 309 309 310 310 310 309 308 307 307 306 306 305 306 305 307 308 307 306 306 306 305 304 304 304 305 305 306 307 307 308 309 309 309 309 309 309 310 310 310 311 311 312 316 317 319 319 320 320 320 319 319 319 320 320 321 322 323 323 324 324 324 322 323 324 325 326 328 329 330 331 331 332 335 336 341 345 347 340
310 312 311 311 312 311 309 308 308 308 308 308 307 308 308 307 306 306 306 305 305 304 305 306 306 306 306 305 305 305 304 304 305 305 305 306 306 307 307 308 308 309 309 309 309 309 310 310 310 310 312 315 317 318 320 320 320 321 320 320 319 319 320 322 323 323 323 323 322 321 322 323 326 327 327 328 329 330 330 332 334 334 336 340 337 343 344
307 309 311 311 311 310 309 308 308 308 307 307 307 307 307 306 305 305 304 305 305 304 305 305 305 305 305 305 306 306 305 305 306 305 305 305 306 307 308 307 305 305 307 309 310 311 311 310 310 310 313 315 316 318 319 319 319 319 319 318 319 318 317 317 318 320 320 320 321 321 323 324 325 326 326 327 328 329 330 331 332 334 337 340 343 343 346
307 308 309 309 309 309 308 307 307 305 305 306 306 305 305 305 304 303 304 304 304 304 305 305 304 304 305 305 305 305 304 304 304 304 304 305 305 306 307 307 306 308 309 311 311 312 312 311 311 312 314 315 316 317 318 318 319 318 317 318 318 319 318 317 319 319 320 321 321 322 323 323 323 325 326 326 326 326 328 328 329 331 333 336 340 344 342
306 304 304 306 307 307 306 306 305 305 305 305 306 307 307 307 306 304 304 304 304 305 304 304 304 305 305 305 305 304 303 303 302 303 303 304 304 305 306 306 307 309 312 313 313 313 313 311 312 313 315 315 316 317 317 318 319 318 318 317 318 318 320 318 318 319 320 320 321 321 323 323 323 324 324 325 325 325 326 326 327 328 330 332 336 335 314
307 306 306 307 307 306 306 307 307 306 306 307 307 307 306 306 305 304 304 305 304 304 304 304 304 305 305 304 303 303 302 301 300 301 301 302 303 304 305 306 307 309 313 314 314 313 312 312 314 315 315 316 317 317 317 318 318 318 317 317 317 317 318 319 319 319 318 319 320 321 323 324 323 322 323 322 322 322 322 323 324 324 325 328 332 326 312
309 310 309 308 309 310 310 308 306 306 306 305 305 305 305 305 305 305 305 304 304 304 305 305 305 304 304 303 302 302 301 300 300 300 301 301 302 303 304 304 305 306 308 310 310 310 312 313 315 315 317 317 316 316 317 317 317 317 317 317 318 318 319 320 319 318 318 319 320 321 321 321 320 320 320 320 320 320 319 320 320 320 320 320 320 320 317
307 307 307 308 310 309 308 307 307 307 306 305 304 304 304 305 305 305 304 305 305 305 305 304 304 303 302 302 301 300 300 300 300 300 301 301 302 303 304 303 303 302 304 305 307 308 309 310 313 312 312 313 314 314 315 315 316 316 317 317 317 317 318 318 318 318 319 319 319 319 319 319 319 319 318 317 316 315 315 315 315 315 315 314 314 313 313
306 305 307 306 306 307 307 307 307 307 306 305 305 305 305 305 304 305 305 305 304 304 304 304 303 301 301 301 301 301 301 300 300 300 300 301 302 302 302 302 301 300 300 301 304 307 308 309 310 310 310 310 311 312 314 315 315 315 315 315 316 316 316 316 316 316 316 318 318 318 318 317 316 316 316 314 312 311 311 310 311 311 311 310 309 308 308
306 305 304 306 306 305 306 306 307 307 306 306 306 305 305 304 305 304 304 304 304 304 304 303 302 301 301 301 300 299 299 299 299 300 300 301 302 300 301 300 299 299 298 300 304 305 307 308 309 309 308 308 309 309 311 312 314 312 313 313 314 314 314 314 315 316 316 316 317 316 316 315 314 314 314 312 311 310 309 308 308 307 306 306 305 305 305
305 306 305 307 306 305 306 306 307 306 305 304 304 305 305 304 304 304 303 303 304 304 302 302 301 301 300 299 298 298 298 299 300 300 300 301 301 300 299 300 300 300 301 304 304 305 306 307 307 307 307 307 308 308 309 311 312 311 312 313 313 313 313 313 313 314 315 316 315 314 314 313 312 311 310 309 308 308 307 306 305 305 304 303 303 302 301
307 306 305 305 306 306 305 305 305 305 305 305 305 303 304 304 303 303 303 302 303 303 302 301 300 299 299 298 298 297 298 299 299 299 299 299 300 299 299 300 300 301 303 305 305 304 305 306 306 305 306 307 307 307 308 310 310 311 311 312 312 311 311 312 312 312 312 312 312 311 310 310 309 309 309 308 307 306 305 304 303 303 302 301 301 300 300
307 306 306 306 306 307 306 305 304 305 305 305 305 304 304 303 303 302 301 301 301 301 301 300 300 299 299 298 298 298 299 299 299 298 299 299 297 297 296 296 299 301 302 302 303 304 304 304 304 304 304 305 306 307 307 308 308 308 309 309 309 309 309 310 310 309 309 309 310 309 308 308 307 306 306 305 305 304 303 302 301 301 300 299 299 299 299
306 307 306 306 306 306 307 306 305 303 303 304 304 304 304 303 302 301 301 301 301 301 301 301 299 300 300 300 299 299 299 299 299 299 299 298 297 296 295 297 301 302 302 303 303 303 303 302 303 304 303 304 305 306 306 306 306 306 307 308 308 308 308 308 308 308 308 307 307 307 307 307 306 305 304 304 303 302 302 301 300 299 298 298 297 297 298
304 305 305 305 306 307 306 305 303 303 302 302 303 303 303 303 302 302 301 301 300 300 300 300 300 300 300 300 299 298 299 300 299 298 298 299 300 299 298 298 300 301 301 302 301 302 301 303 302 303 303 303 303 304 304 304 305 306 306 306 307 307 308 307 307 306 306 305 304 305 305 304 304 303 302 301 301 301 300 300 299 299 299 298 297 297 297
303 304 305 305 305 305 305 304 303 302 302 302 304 304 303 302 302 301 300 300 300 300 300 300 300 300 300 299 299 298 298 298 297 297 297 297 298 300 301 300 300 300 300 300 301 300 300 301 301 301 302 302 302 302 303 303 304 304 305 305 305 305 306 305 305 305 304 304 304 304 304 304 303 302 301 301 300 300 300 299 299 299 299 298 297 297 297
304 304 305 305 305 304 303 303 302 301 302 303 303 302 303 302 302 302 301 300 300 300 300 300 300 300 300 299 299 299 299 299 298 297 296 295 294 295 300 300 300 299 299 299 299 299 298 299 299 300 300 301 301 301 301 301 301 302 303 303 304 304 304 303 303 303 303 303 303 304 303 302 301 301 301 301 300 300 299 299 298 298 298 298 297 297 297
305 306 306 304 304 304 304 305 304 303 303 302 301 302 302 302 302 302 302 301 301 301 300 301 300 300 300 300 300 301 300 300 299 299 298 297 296 298 300 299 299 298 298 298 298 298 298 299 299 298 299 300 300 299 299 300 300 300 300 300 301 301 301 302 302 302 302 301 301 301 301 301 300 300 300 299 299 299 299 299 298 298 297 297 297 297 297
304 304 305 304 305 305 305 304 304 303 302 301 300 300 301 302 302 302 302 302 302 302 302 302 301 301 303 301 300 299 298 298 299 299 299 299 299 299 299 299 299 298 298 297 297 297 298 298 298 297 297 298 299 298 298 298 299 299 299 299 299 299 299 299 299 299 300 301 301 300 300 300 300 299 300 299 298 298 298 298 297 298 298 298 298 297 297
303 303 304 303 302 303 304 303 302 301 300 300 301 301 301 302 303 303 302 303 303 302 302 302 302 302 303 302 302 301 300 298 295 296 299 298 298 299 299 298 298 298 298 297 296 297 297 297 297 297 297 296 296 297 297 297 297 297 297 298 297 298 298 298 298 298 299 299 299 298 298 299 299 299 299 298 298 297 297 297 297 297 297 297 296 296 296
304 302 304 302 304 304 303 301 301 301 300 301 302 301 302 302 302 302 302 302 301 301 300 301 301 301 302 302 302 301 301 301 298 296 298 299 298 298 298 298 298 298 298 296 296 296 297 297 296 296 296 295 293 294 295 296 296 297 296 297 297 297 297 296 297 297 298 298 298 298 297 297 297 298 297 297 297 297 297 296 296 296 296 296 296 296 296
303 303 303 303 302 301 302 301 300 300 301 302 301 301 302 302 300 300 300 300 300 300 300 300 300 301 301 301 301 301 302 301 301 300 299 299 299 299 298 298 298 297 297 296 296 296 296 297 297 297 296 295 294 293 293 294 295 295 295 296 296 296 296 296 295 295 296 296 296 296 296 296 297 298 298 297 297 297 296 295 295 295 295 295 295 295 295
300 301 303 304 303 304 305 304 303 302 302 302 303 302 302 301 300 300 301 300 300 299 299 299 300 300 301 301 301 300 301 301 301 300 299 299 299 298 298 298 298 297 297 297 296 296 296 297 297 296 296 296 294 293 293 292 293 294 294 294 294 294 295 295 295 295 295 295 295 295 295 295 295 295 295 295 295 296 296 296 295 295 295 294 294 295 295
303 304 305 305 303 302 302 304 304 305 304 304 304 303 302 301 301 300 300 300 300 298 298 298 298 300 301 302 301 300 300 300 300 299 299 299 299 298 299 298 298 297 296 296 296 296 297 297 296 296 296 296 296 295 294 293 292 293 293 294 293 293 294 294 294 294 294 295 294 294 294 293 293 294 294 294 295 295 294 294 295 295 295 295 295 295 296
Wind_Speed
5 5 6 5 3 3 3 2 2 4 4 5 4 5 4 5 5 6 9 6 11 12 10 9 8 7 8 8 9 9 9 9 10 12 13 15 15 16 17 17 16 16 16 15 16 15 14 16 17 16 13 13 9 4 6 7 8 9 8 9 11 12 12 12 12 11 11 11 11 11 11 11 12 12 12 12 12 12 12 12 11 13 13 14 13 13 12
4 4 3 3 2 1 1 1 2 1 1 3 3 5 4 5 9 12 12 11 11 10 10 9 8 5 6 7 6 8 9 10 10 12 13 14 15 15 16 16 16 15 16 16 15 15 15 15 15 15 14 13 11 6 2 1 7 10 8 10 9 11 11 12 12 11 10 10 10 11 11 12 12 12 12 12 12 12 12 12 11 10 11 12 13 13 12
4 3 2 2 1 1 2 1 2 3 2 3 2 4 6 7 8 9 11 11 10 7 6 8 6 4 4 5 7 8 9 10 11 11 13 13 13 14 15 15 15 15 16 16 16 16 16 15 14 12 12 12 9 10 9 4 2 4 8 9 11 10 11 11 10 10 10 10 10 11 11 11 11 11 12 11 10 11 11 11 11 10 10 12 13 13 13
5 3 2 3 1 1 3 4 4 5 6 6 6 5 4 3 7 8 9 8 7 7 6 7 6 6 4 4 5 7 7 9 10 11 12 12 12 14 14 14 15 15 16 16 16 16 16 16 14 12 11 11 12 10 10 11 7 5 6 7 8 9 11 11 11 11 11 10 11 11 10 10 10 9 8 9 10 10 10 11 11 11 12 12 12 13 12
3 6 3 0 4 5 6 9 7 5 3 3 4 4 2 3 3 8 7 5 7 8 7 7 4 4 5 4 5 6 7 8 9 10 11 11 12 12 12 13 14 15 14 14 15 15 14 14 13 14 12 10 10 10 10 11 10 7 7 6 7 6 7 9 11 11 10 11 11 12 11 11 10 9 10 11 12 12 13 12 11 11 12 12 12 13 13
4 5 2 3 5 8 3 9 6 2 4 5 6 6 5 4 4 4 5 8 6 7 5 6 5 3 4 3 5 5 6 6 7 9 9 10 11 11 11 11 12 12 12 12 13 14 13 12 12 12 12 12 10 9 9 10 10 8 8 6 6 7 8 8 8 9 10 11 11 11 11 11 11 11 12 12 13 13 12 12 12 12 13 14 13 12 13
4 4 4 5 7 3 8 5 6 3 2 2 1 5 2 3 1 3 5 6 5 2 3 3 2 2 3 5 4 5 6 7 7 7 8 10 10 10 11 12 12 11 12 13 13 13 13 13 12 12 12 12 12 10 10 10 11 10 9 9 8 7 7 8 9 10 9 9 11 12 11 11 11 12 13 13 13 12 12 12 12 12 13 13 13 13 14
2 4 5 5 2 7 5 5 4 4 2 3 4 5 5 3 3 3 5 6 5 5 4 2 2 2 3 3 5 2 5 6 7 7 8 9 9 10 10 11 11 11 12 12 13 12 11 11 11 11 12 12 11 11 10 9 8 9 9 10 11 12 12 10 8 6 8 9 10 11 12 11 12 12 12 12 12 11 11 11 11 11 11 11 13 13 14
5 4 7 2 6 6 6 6 7 7 5 8 7 4 8 5 3 1 3 7 4 4 4 4 3 3 4 4 6 7 4 5 6 7 8 8 9 9 9 10 10 10 11 12 12 11 11 11 12 11 12 12 12 11 11 10 10 9 9 9 9 9 10 11 11 8 7 10 10 9 10 10 12 12 12 12 11 10 11 11 12 12 12 11 11 12 14
5 5 4 5 5 6 8 6 7 4 5 5 1 5 7 5 3 2 1 4 6 5 4 3 3 5 7 6 4 5 3 5 5 6 6 7 8 9 9 9 9 10 11 11 11 11 12 11 12 10 10 11 11 11 11 10 9 9 8 8 8 8 9 9 10 10 9 9 9 9 9 11 12 12 12 12 12 11 12 12 12 12 11 11 12 12 13
5 6 5 4 4 1 8 10 8 7 4 4 2 4 6 9 6 3 4 3 4 2 3 2 4 6 7 5 3 5 4 5 6 7 7 8 9 9 10 10 10 11 11 11 11 11 11 11 12 11 11 11 11 11 11 11 10 10 11 11 10 10 10 9 8 8 8 8 8 9 11 12 12 11 11 11 11 11 12 12 12 11 11 11 12 12 13
5 5 5 4 2 1 8 9 8 7 5 2 6 7 5 8 5 5 4 3 3 2 1 3 4 5 7 5 7 7 8 8 8 7 8 8 9 10 10 10 11 11 11 10 10 11 11 11 12 12 11 10 11 10 12 11 11 11 12 12 11 11 11 10 8 8 7 8 7 8 9 10 12 13 12 12 13 13 13 12 13 12 13 12 13 11 8
5 5 6 5 3 6 9 10 9 8 4 3 6 6 7 6 7 4 4 1 1 0 3 2 4 2 4 9 9 8 10 10 11 10 10 10 9 9 10 10 11 11 11 10 10 11 10 10 10 10 11 10 10 10 10 10 11 11 11 11 11 11 11 11 10 9 7 6 7 7 8 9 10 11 11 12 12 12 13 12 12 13 13 12 11 11 11
6 6 7 6 2 7 9 9 8 7 5 6 3 9 8 6 6 4 2 1 2 3 4 4 4 4 5 8 9 10 9 10 10 11 12 13 12 10 9 9 9 10 11 11 12 11 10 10 9 9 10 10 10 10 10 10 11 10 11 11 11 11 12 12 12 10 9 9 8 7 7 7 8 9 10 11 11 12 11 11 13 14 11 7 7 9 10
4 4 7 3 6 6 8 13 8 5 8 3 6 7 3 3 3 3 3 3 3 3 5 4 4 6 6 7 8 9 9 10 10 10 11 12 13 13 12 11 10 10 10 11 12 13 11 10 9 9 10 10 10 10 10 11 10 10 10 10 11 11 12 12 11 11 10 10 9 7 7 8 8 8 9 10 11 12 12 13 13 14 14 11 9 7 8
4 5 5 3 4 7 10 11 4 9 4 5 4 2 4 4 2 3 2 3 2 3 4 5 6 7 8 8 7 8 8 9 9 10 10 11 12 13 13 13 12 12 11 11 11 11 11 10 10 9 9 9 9 10 12 10 10 10 10 10 10 11 11 12 11 11 10 10 9 9 9 8 8 8 8 9 10 10 10 11 11 11 11 12 12 11 12
7 2 1 7 3 4 9 8 4 5 7 4 2 1 1 2 3 2 3 2 2 3 4 6 7 7 7 8 8 9 9 9 10 10 10 11 12 13 14 13 12 12 11 13 13 13 11 11 10 10 9 10 10 10 10 10 11 11 11 10 10 11 11 12 11 11 10 9 9 9 9 9 9 8 8 8 8 9 10 11 10 11 12 12 13 14 14
6 9 8 2 2 4 9 5 2 6 6 4 2 2 3 3 2 2 3 1 3 3 4 5 7 7 8 9 9 10 10 10 11 10 10 10 11 12 13 13 12 12 13 14 14 15 14 12 11 11 10 10 12 10 9 8 10 11 11 11 10 10 10 11 12 12 12 11 9 9 9 9 10 9 9 8 8 8 9 11 9 10 11 11 12 14 14
0 3 7 11 10 7 9 9 7 4 5 5 4 4 4 3 3 3 3 3 3 4 4 6 8 9 9 10 10 10 10 10 11 11 11 10 11 11 12 13 13 12 13 13 14 15 16 14 12 11 12 12 11 10 10 9 9 9 10 11 11 11 11 11 11 11 11 9 9 10 10 9 9 9 9 9 9 9 9 10 11 10 9 11 12 13 13
8 7 3 1 0 4 7 8 9 9 8 8 7 5 4 4 4 4 4 4 6 4 6 6 7 8 9 10 10 10 10 10 10 10 11 11 11 10 11 12 13 14 14 14 15 15 14 14 13 12 12 13 12 12 12 11 11 10 10 10 11 12 13 12 11 10 10 11 11 9 8 9 9 9 10 9 9 9 9 8 10 9 9 11 11 11 12
9 11 11 8 6 7 8 9 10 9 7 7 8 8 7 7 6 6 6 6 5 5 6 6 7 9 10 10 11 12 11 11 10 11 11 12 12 13 13 12 12 13 14 15 15 17 16 15 14 14 13 13 13 13 12 11 11 10 10 11 11 13 12 12 11 10 9 9 9 9 9 9 9 9 9 10 10 10 11 9 7 7 7 9 10 11 12
10 9 7 8 11 9 10 14 13 11 11 9 8 8 8 8 8 7 7 7 6 6 6 7 7 10 10 10 11 13 12 12 13 13 13 12 13 14 13 12 13 14 15 16 16 17 16 15 15 15 14 13 12 13 12 11 10 10 10 10 11 11 10 10 11 10 9 9 10 9 9 9 10 10 11 12 11 12 13 13 15 16 9 9 10 9 11
11 8 9 6 7 10 9 6 3 6 7 9 10 10 9 8 8 7 7 6 6 7 7 7 8 10 10 12 13 14 13 13 13 13 14 14 14 14 14 15 15 15 15 16 17 18 17 15 16 16 15 14 13 12 12 12 12 11 10 10 10 10 10 9 9 9 10 10 9 8 9 9 10 11 12 11 14 19 19 18 16 18 19 19 17 13 10
14 13 12 11 9 9 8 8 7 7 6 7 9 9 8 8 7 7 7 6 6 6 6 7 8 10 11 13 14 15 15 15 15 15 15 15 16 16 16 16 17 17 18 18 18 19 18 18 17 16 16 15 14 13 12 13 12 12 11 10 10 10 10 9 9 10 9 9 9 9 9 9 9 10 11 13 12 9 14 15 17 18 18 18 17 17 17
11 11 11 11 11 10 8 9 8 9 8 7 7 8 8 8 7 6 6 5 5 7 7 8 9 9 11 13 14 15 15 15 15 16 17 16 16 16 16 17 18 17 17 17 17 17 17 18 18 17 16 16 14 13 12 12 12 13 13 11 12 12 10 11 11 11 10 9 8 8 9 10 10 9 10 11 13 14 10 12 17 18 17 17 17 19 20
11 13 13 13 10 10 8 9 11 10 9 9 8 7 7 7 6 6 6 6 7 7 8 9 10 11 12 13 12 14 15 15 16 16 16 16 16 16 17 18 18 17 18 18 18 18 19 20 19 18 18 17 16 14 13 12 13 14 14 13 13 12 12 11 11 11 10 9 9 9 8 9 10 10 10 10 11 13 14 14 11 11 14 16 17 17 18
11 12 13 14 14 13 12 12 11 11 11 10 9 9 8 8 7 6 5 4 4 6 8 9 10 12 12 12 13 13 14 14 14 14 14 16 17 17 17 17 19 20 21 20 19 19 20 20 20 19 19 19 16 14 14 13 13 14 14 15 13 14 19 16 12 12 12 10 10 9 9 9 10 10 10 10 11 12 12 13 13 13 12 9 10 16 15
10 10 11 13 12 10 9 10 11 10 10 11 10 9 9 7 7 7 7 7 9 8 8 10 11 11 12 12 12 13 13 13 14 15 15 16 16 16 17 19 21 21 20 20 20 20 20 18 19 20 20 19 17 16 15 15 14 14 14 14 14 13 13 14 13 12 12 11 11 10 10 9 10 10 10 10 11 12 13 13 13 13 13 11 9 8 16
11 12 12 13 12 10 7 4 7 9 10 10 10 9 9 8 9 9 8 8 8 7 9 10 10 11 11 11 11 13 13 14 15 16 15 15 16 16 17 20 21 21 20 20 19 19 19 19 19 20 20 17 17 16 16 15 14 14 14 15 14 13 12 11 11 11 11 11 11 12 12 11 11 11 10 10 11 12 12 13 12 11 12 13 11 9 8
8 9 10 10 10 10 8 9 8 9 9 9 10 10 9 9 9 8 8 9 8 9 10 10 10 10 10 11 11 11 12 14 15 15 15 15 16 16 17 18 19 21 19 19 19 19 19 19 18 18 17 16 16 16 15 14 14 14 15 15 15 14 13 12 11 11 11 11 11 12 12 11 10 11 11 11 11 10 11 12 12 12 13 13 12 12 11
12 11 10 8 8 9 11 11 9 9 9 10 11 10 9 8 8 7 8 7 7 9 9 10 10 11 11 11 11 11 12 14 14 14 14 14 15 16 16 17 17 17 17 18 17 16 15 15 17 17 15 15 16 15 14 14 14 15 14 14 14 15 15 12 10 12 12 12 12 11 11 11 11 11 11 11 10 10 10 10 10 11 11 12 12 11 10
12 11 11 9 8 10 11 10 9 10 10 10 11 10 9 9 8 8 8 8 8 8 9 10 10 10 10 11 11 12 12 13 13 14 14 14 14 14 16 18 19 20 19 17 15 15 14 15 16 15 15 15 16 16 15 14 13 13 13 13 12 12 12 15 12 13 12 12 12 11 11 11 11 11 11 11 11 10 10 10 11 10 10 11 11 10 6
9 10 9 8 8 10 10 10 11 11 12 12 10 8 7 6 6 7 7 6 7 8 8 9 9 10 10 10 11 12 12 12 13 13 13 13 14 15 15 16 18 19 16 14 13 13 13 15 15 15 15 15 16 16 15 15 13 10 10 11 10 11 12 10 10 11 11 12 12 12 11 11 11 11 11 11 11 10 10 10 10 10 10 10 11 4 5
8 7 6 6 9 10 11 10 10 10 10 8 7 7 6 6 6 5 5 6 7 8 8 8 9 9 10 10 11 11 12 12 11 12 14 14 15 16 15 16 16 20 15 13 11 11 10 11 12 13 14 15 14 13 13 12 11 9 9 10 10 11 11 10 10 11 11 11 11 12 12 11 10 11 11 10 10 9 10 9 9 9 9 9 8 6 8
6 7 7 8 7 8 9 10 10 9 9 8 8 6 5 5 5 4 4 6 7 6 7 8 8 8 9 10 10 11 12 11 12 12 13 13 14 15 13 14 13 14 16 12 10 9 10 10 9 10 11 12 13 12 11 12 10 9 10 10 12 11 11 10 10 10 11 10 10 10 9 9 11 10 9 9 9 9 9 9 8 8 7 7 6 7 7
4 5 7 5 6 8 9 9 9 8 8 7 6 4 5 4 3 4 5 5 4 6 6 7 7 8 9 9 10 11 11 11 11 11 12 13 14 12 12 11 10 12 14 12 11 11 11 10 13 13 9 8 8 9 10 9 9 9 9 9 10 10 10 11 10 10 10 10 10 9 9 10 10 9 9 8 7 7 7 7 7 7 7 6 5 5 6
0 5 7 2 4 6 7 7 6 6 6 5 4 5 4 3 3 3 4 4 4 5 6 6 7 8 8 8 9 10 10 10 10 10 10 12 12 12 11 10 9 10 11 10 12 11 10 9 15 15 9 7 7 8 8 10 9 8 8 10 11 10 10 10 10 10 10 9 9 9 10 9 8 8 6 5 5 5 5 5 5 6 5 5 5 5 5
1 4 6 2 3 4 6 6 6 6 6 6 4 3 2 2 2 3 3 3 4 4 5 6 7 7 7 7 8 9 10 10 10 10 11 11 11 12 11 9 9 9 9 8 10 10 8 12 16 11 9 7 7 7 9 12 13 10 9 10 10 9 10 10 11 10 9 9 9 8 8 8 8 7 6 5 4 4 3 4 4 4 3 3 3 3 4
4 4 4 4 6 6 6 6 6 5 5 5 3 2 1 1 2 2 2 3 3 3 5 6 6 7 7 7 8 9 9 10 10 11 11 12 10 10 10 9 7 8 8 10 10 8 9 11 11 9 7 8 9 9 10 13 14 10 9 10 10 10 10 10 11 10 9 8 8 7 7 7 7 6 5 4 3 3 3 2 2 2 2 1 2 2 3
4 5 4 4 6 7 6 6 6 5 4 3 2 2 1 2 1 2 2 3 3 3 5 5 6 5 6 7 8 8 9 10 9 10 10 11 8 9 9 8 10 10 12 16 11 8 12 16 11 8 8 8 8 8 8 11 11 9 9 9 8 8 9 9 9 9 8 8 7 7 7 6 5 5 4 3 3 2 2 1 0 1 1 1 2 2 2
4 6 7 7 7 7 7 7 7 6 5 4 3 2 2 0 1 1 2 2 2 3 3 4 4 5 6 6 7 7 8 9 9 9 10 9 7 8 9 10 10 10 11 12 11 10 11 11 9 8 8 7 6 9 8 9 8 8 8 8 8 8 8 8 8 8 7 7 7 6 6 5 5 4 3 3 2 2 1 1 1 1 2 2 3 3 3
6 7 8 9 8 8 8 7 7 6 5 4 3 3 2 2 2 2 2 2 2 2 3 3 4 6 6 6 6 7 7 8 9 9 9 9 8 8 10 9 10 9 15 15 13 12 9 10 9 9 8 8 8 11 12 9 8 8 8 8 7 7 7 7 7 6 6 5 5 5 4 4 4 3 3 3 2 2 2 2 2 2 3 3 4 4 4
7 7 8 7 8 9 9 8 7 7 6 5 4 3 3 3 2 2 2 2 2 2 3 4 4 5 6 6 7 7 7 7 8 9 9 7 7 8 10 10 10 10 16 12 11 9 10 9 9 8 12 11 9 12 13 8 7 7 7 7 6 6 6 5 5 5 4 4 5 4 4 3 3 3 3 3 3 3 2 2 2 3 3 4 5 5 6
6 5 7 7 8 9 9 9 8 8 7 6 5 5 4 3 3 3 3 3 2 2 3 4 4 5 6 7 7 7 7 7 7 8 8 7 7 8 10 9 9 11 16 11 10 9 9 9 9 13 16 14 13 11 8 6 6 6 5 4 4 3 2 2 2 3 3 3 3 3 3 3 3 3 4 4 4 4 3 3 3 4 4 5 5 6 6
7 6 7 9 10 9 9 9 9 8 7 7 6 5 4 4 3 3 3 2 2 2 4 4 5 6 7 7 7 6 6 6 6 7 8 8 8 8 9 11 10 10 11 14 9 9 8 9 13 18 15 14 11 9 5 5 5 5 4 3 2 1 1 1 1 1 1 1 1 2 3 3 3 3 3 3 4 4 4 4 5 5 5 6 6 7 7
5 4 6 10 11 10 9 9 8 8 8 8 7 6 4 3 3 2 2 1 2 3 3 4 5 7 6 6 6 6 7 6 5 6 7 6 7 8 9 12 10 10 12 12 8 9 9 15 17 16 16 14 11 7 5 5 4 4 4 5 4 4 4 3 2 2 2 2 2 3 4 4 3 3 3 4 4 5 5 6 6 6 6 6 7 7 8
5 6 8 9 8 9 10 8 8 9 9 8 7 6 4 3 2 2 2 2 2 3 4 5 6 7 6 6 7 8 8 7 5 6 7 7 8 8 10 13 13 14 11 9 8 9 10 10 12 15 15 15 14 8 8 7 7 6 5 5 5 5 5 5 5 5 5 4 4 5 6 5 4 4 5 5 5 6 6 7 7 7 8 8 8 9 9
7 6 9 10 11 10 9 9 9 9 8 6 6 5 4 3 3 3 3 2 2 3 4 5 5 6 5 6 7 7 7 7 7 7 8 8 8 8 9 9 11 14 12 10 13 13 19 18 16 15 15 14 9 8 9 8 7 7 7 7 6 6 6 5 5 5 5 5 5 4 4 4 3 3 4 5 5 6 7 7 7 8 8 8 9 9 9
5 9 9 10 10 10 9 9 9 8 7 7 6 5 4 4 4 3 2 3 2 3 4 4 4 5 5 6 6 6 6 6 6 6 7 7 8 8 8 9 14 14 11 9 10 9 16 19 17 16 15 13 8 7 7 8 8 7 7 7 7 8 7 7 6 6 6 6 5 5 6 7 5 5 6 6 6 6 7 8 9 8 9 9 9 10 10
10 9 8 8 8 9 8 8 8 8 7 6 5 4 3 3 3 4 3 3 3 4 4 5 5 5 5 5 5 6 6 7 7 7 6 7 8 8 8 9 9 12 13 10 11 10 13 19 18 16 11 7 8 9 9 8 7 7 7 8 7 6 8 8 9 10 9 7 7 6 8 7 5 7 8 6 6 5 7 9 9 12 15 11 10 10 11
8 8 5 6 7 5 6 6 7 7 6 6 5 3 3 3 3 3 4 4 4 5 4 4 4 5 5 5 4 6 6 6 7 8 7 7 7 8 9 8 9 10 10 10 11 10 8 8 8 10 10 9 8 8 9 11 10 9 10 8 9 7 8 9 7 6 7 7 6 6 8 7 7 9 7 5 7 6 8 9 9 10 11 11 11 10 10
7 6 5 6 7 6 6 6 7 6 5 4 4 4 3 2 3 4 4 4 4 5 4 4 4 4 3 4 5 5 5 6 6 6 7 7 7 7 7 9 9 9 9 9 9 10 9 9 11 14 13 9 8 9 11 13 10 9 9 10 9 8 10 9 9 9 8 8 8 8 8 7 7 8 9 8 8 9 11 11 10 11 11 11 11 11 11
Wind_Direction
80 57 64 51 68 60 57 48 32 45 34 35 60 71 46 6 307 145 145 153 142 144 138 126 91 80 85 74 58 48 42 46 50 48 44 43 40 36 35 33 35 31 32 29 25 22 20 18 17 18 16 15 9 39 24 331 286 242 231 219 216 217 219 222 219 217 218 219 215 212 211 211 213 217 219 217 216 217 215 218 218 221 221 222 217 216 218
101 92 76 56 47 80 191 117 84 55 54 71 80 93 77 77 88 110 135 133 138 140 138 115 91 78 73 68 60 63 38 42 41 45 45 40 38 35 33 29 28 28 28 27 24 22 22 19 16 15 13 10 4 354 352 5 353 330 263 234 229 229 222 220 223 219 214 215 211 209 207 209 210 212 217 218 217 216 218 219 222 223 225 224 227 222 219
126 104 161 162 78 349 206 130 178 163 160 142 114 116 111 110 107 118 130 129 131 118 123 112 119 111 95 74 53 53 46 33 35 40 41 39 34 32 29 27 25 23 24 22 20 20 20 20 17 12 9 10 11 4 358 359 310 291 325 277 237 235 237 229 223 221 214 211 210 209 207 208 209 209 214 219 220 220 220 221 223 221 223 225 226 228 224
150 155 170 171 215 220 241 193 177 174 178 177 171 169 127 195 143 150 150 164 147 138 147 138 133 116 83 80 34 46 44 36 34 32 36 35 33 32 25 21 20 21 20 20 17 15 15 14 12 9 5 4 11 12 355 351 351 321 265 293 285 252 236 240 240 229 226 210 205 208 207 209 209 210 212 219 227 227 226 225 222 225 225 226 228 230 230
139 123 197 315 230 217 216 204 173 164 147 62 108 74 109 30 112 168 189 168 124 136 150 153 158 158 108 71 22 30 37 39 34 31 28 30 29 31 28 22 19 17 14 16 14 12 12 10 6 4 1 0 359 353 356 339 339 346 347 294 273 297 301 259 233 232 227 219 212 208 206 207 206 203 203 210 217 223 227 228 230 227 230 230 228 229 234
131 151 168 229 234 224 173 76 97 169 162 177 188 167 157 137 274 49 7 108 131 142 173 189 144 194 89 65 81 44 25 18 33 30 27 20 23 22 24 24 22 14 11 12 12 10 6 9 8 4 4 359 354 354 351 354 351 357 350 343 330 305 277 270 262 240 230 233 232 221 209 207 205 206 210 211 218 225 228 226 225 228 230 231 231 230 231
164 149 196 211 225 198 93 122 110 149 109 175 180 95 153 147 130 126 152 141 130 88 102 103 87 114 246 161 50 54 47 22 20 21 29 16 13 14 14 14 15 12 9 6 6 6 6 5 3 2 6 0 357 356 356 2 358 7 0 358 351 336 316 290 262 247 241 240 238 233 222 210 208 209 212 218 221 223 226 225 226 227 232 234 232 231 231
116 200 197 222 150 85 145 115 136 110 195 135 172 161 152 160 136 163 157 138 145 158 156 189 174 246 296 240 145 69 52 34 18 12 19 14 7 9 7 7 6 6 6 4 2 357 359 3 2 4 2 358 357 357 352 1 360 9 5 6 360 354 347 346 2 346 289 248 237 233 227 216 210 212 216 217 219 222 231 236 234 232 229 235 240 237 233
233 218 213 202 89 176 151 174 183 186 186 188 202 212 159 133 128 180 182 157 179 200 199 206 223 274 265 233 207 134 56 37 23 15 10 5 2 359 360 359 357 4 1 356 356 347 357 1 4 360 358 357 355 359 358 358 351 356 5 7 2 355 349 346 347 338 322 324 314 269 236 226 228 229 227 224 224 223 226 231 238 238 239 237 236 241 243
258 258 226 220 205 242 190 149 113 80 84 51 55 297 148 132 138 185 186 190 169 210 217 236 274 269 258 237 205 94 69 35 11 1 359 352 355 349 351 349 350 356 358 349 347 346 348 358 358 355 355 354 353 359 357 353 351 354 357 3 356 351 344 343 334 334 333 322 293 283 261 247 244 246 245 243 241 237 238 235 231 237 241 243 245 243 242
206 239 251 222 230 153 80 125 131 122 106 122 68 236 224 142 163 158 181 168 121 254 224 230 270 250 238 233 91 76 16 358 357 342 341 338 340 334 336 337 343 352 348 340 335 340 344 356 347 345 352 350 355 355 353 352 357 356 354 351 348 341 334 333 327 322 320 314 317 295 267 256 254 250 247 247 248 245 241 242 243 236 232 238 242 243 242
228 252 241 243 242 123 143 132 140 136 130 157 236 241 187 137 154 152 150 161 150 157 195 266 264 262 245 213 70 350 346 338 330 333 327 328 325 323 325 323 336 335 327 324 331 337 342 352 336 341 345 349 351 351 347 345 351 352 353 347 341 334 329 321 320 316 307 308 303 308 307 285 262 252 248 246 243 241 242 241 240 237 232 231 233 237 243
202 214 255 264 164 122 136 146 137 134 155 235 230 236 111 149 141 158 131 209 130 258 278 279 268 250 315 328 336 336 329 323 320 321 316 311 311 309 313 320 331 316 316 318 323 324 335 333 331 337 340 338 342 342 338 338 343 343 342 339 337 334 328 322 320 314 309 308 302 299 293 299 301 281 256 247 245 243 240 236 238 237 235 229 230 236 233
252 226 242 238 297 95 144 143 149 140 183 211 229 82 122 132 147 152 185 271 283 289 281 281 281 304 308 304 307 308 312 314 308 306 309 308 307 306 305 313 304 304 308 311 308 309 318 318 326 333 330 330 327 329 327 332 333 336 333 333 333 333 327 324 322 318 318 316 309 302 298 298 299 299 284 258 248 246 245 243 238 237 235 223 231 242 247
244 260 248 247 244 127 175 141 150 175 235 68 103 141 132 138 156 170 204 253 300 292 287 283 288 283 293 299 303 305 300 302 303 304 305 306 306 308 308 299 296 298 300 303 305 306 307 311 324 319 321 320 315 316 316 323 328 327 328 326 329 326 326 324 322 318 314 312 310 305 300 296 294 294 298 285 258 244 240 239 240 241 240 243 240 240 247
244 214 221 232 42 105 158 167 203 173 236 94 110 82 177 161 215 197 221 226 238 304 292 299 297 303 298 291 292 299 299 295 300 300 298 299 299 299 299 301 302 305 300 295 293 297 303 310 307 306 306 305 303 304 306 316 319 319 318 323 321 322 322 322 322 319 314 312 309 305 299 293 288 283 283 286 285 266 244 235 239 239 240 242 245 244 239
233 276 322 70 103 143 175 205 37 120 128 138 122 88 322 211 189 183 266 263 218 234 276 283 290 289 291 299 305 302 301 299 296 299 300 301 301 299 299 300 303 300 296 297 296 292 290 291 294 293 293 289 290 290 298 306 309 312 314 313 317 319 319 318 317 317 317 310 305 301 301 294 286 278 268 263 261 266 255 239 233 235 236 237 240 244 245
250 272 274 279 139 167 188 189 142 141 146 149 190 218 225 205 256 219 263 246 224 241 243 277 283 284 296 299 297 295 298 302 301 297 294 290 291 294 295 297 299 302 299 295 292 290 290 286 285 283 279 281 282 286 292 292 296 301 305 310 313 312 310 312 313 315 314 311 303 297 296 291 283 273 266 260 259 252 250 248 242 239 241 239 240 242 244
77 255 191 224 230 206 198 199 178 173 174 180 191 196 222 226 204 225 215 236 244 245 263 266 278 286 289 291 295 297 298 293 294 294 295 296 292 293 294 297 300 296 297 295 293 292 291 294 293 289 287 282 280 281 280 279 283 290 299 306 304 304 307 308 309 308 308 310 317 309 299 292 285 279 264 254 251 251 248 251 249 244 238 241 243 242 242
228 248 114 145 48 242 226 222 215 210 213 212 205 213 214 212 204 230 217 212 233 244 255 258 272 282 289 292 295 298 297 298 298 297 294 294 294 291 291 292 293 291 290 290 291 291 290 291 291 288 286 284 282 282 284 288 290 289 285 288 297 302 304 305 302 304 306 307 302 296 300 300 298 299 295 284 266 255 253 250 250 246 241 243 242 243 248
239 246 258 236 201 213 217 224 233 243 239 214 199 201 200 201 208 209 213 220 254 263 271 277 280 285 290 294 298 299 300 298 297 297 297 293 291 291 287 286 284 284 287 287 288 288 287 287 286 284 280 278 279 278 277 278 277 275 277 280 281 286 294 296 296 299 299 302 304 309 308 301 290 283 281 282 286 287 277 272 276 280 287 275 264 261 256
242 245 243 224 234 234 219 211 215 226 229 227 214 200 203 201 204 204 216 222 232 250 267 274 277 283 290 295 298 297 297 295 295 295 294 293 290 288 287 285 283 282 281 281 280 280 280 282 282 281 280 274 271 270 272 272 271 266 269 277 280 278 281 288 291 295 300 305 309 306 302 301 302 295 286 278 270 275 280 286 297 295 275 265 272 295 299
252 250 266 291 285 277 284 315 260 211 217 213 214 208 206 202 203 206 216 231 239 247 258 276 289 290 293 297 297 293 293 296 298 296 294 292 290 287 288 286 283 280 279 279 278 276 276 276 275 276 275 273 268 265 265 265 262 260 260 265 273 278 274 271 286 300 298 296 299 299 298 298 298 298 298 282 246 237 243 255 259 262 271 274 273 260 252
268 280 287 289 276 263 270 272 271 244 225 220 214 208 203 205 205 203 218 228 252 261 273 277 280 288 295 297 297 297 297 297 298 296 295 294 293 292 289 286 285 284 282 281 279 279 278 275 272 270 272 272 270 264 260 260 256 255 257 258 263 267 273 276 283 285 286 289 291 291 291 291 291 296 297 297 294 256 237 243 252 257 259 262 267 270 258
267 275 281 283 283 274 256 260 255 251 225 215 216 203 200 203 203 208 219 232 248 262 272 281 288 294 295 293 294 296 299 298 296 296 294 292 290 288 286 285 283 282 280 279 277 276 274 273 273 274 270 269 269 267 263 257 255 256 254 253 259 264 267 273 274 279 281 282 282 283 288 289 289 289 291 295 294 299 288 246 243 248 250 248 250 256 258
250 258 265 269 265 257 259 258 240 236 224 208 211 209 207 209 211 208 218 234 266 279 285 286 291 294 294 293 293 294 294 293 294 296 294 293 292 291 289 287 287 285 282 280 277 276 273 273 272 268 267 265 264 263 258 253 251 251 250 249 252 257 263 267 272 275 278 281 280 277 277 281 285 286 284 286 289 293 296 303 286 256 244 249 253 256 260
243 244 255 266 260 252 243 239 240 228 222 214 211 209 210 203 195 225 242 237 263 270 281 285 284 288 294 296 294 291 291 294 294 291 291 292 292 292 292 291 291 289 286 281 278 275 275 274 269 267 267 266 267 268 266 264 260 255 251 251 252 257 259 263 264 266 270 272 275 277 277 278 278 279 280 283 287 287 288 288 291 291 297 282 244 230 241
247 237 234 242 247 249 237 226 235 247 224 209 207 206 209 213 217 230 237 256 275 283 287 287 293 296 295 297 298 297 296 294 294 296 296 295 297 296 295 295 294 290 287 284 281 278 273 268 270 266 261 262 262 260 259 259 258 255 253 250 251 253 257 256 256 259 261 264 268 273 276 276 278 281 282 282 279 280 282 279 279 285 289 284 287 263 236
242 238 232 234 246 253 265 232 208 213 218 209 207 209 214 214 222 240 256 269 281 284 276 284 292 296 295 296 298 298 298 299 301 301 300 299 299 299 300 298 294 291 287 283 281 277 272 265 261 264 262 260 262 262 261 259 257 254 252 249 248 249 250 249 253 259 264 266 267 270 275 279 280 275 272 271 274 278 279 281 279 281 280 288 289 277 256
269 248 236 234 235 237 221 209 206 207 212 207 206 208 214 219 235 256 276 281 278 276 288 297 296 296 300 299 298 301 304 302 301 300 301 302 303 304 302 301 300 295 288 281 275 269 263 259 256 257 262 259 259 258 256 252 250 250 251 251 251 250 248 251 255 260 263 265 267 271 271 269 265 268 272 274 275 274 276 277 284 287 287 285 280 285 290
278 269 252 234 233 221 213 215 209 210 210 200 205 207 209 220 240 256 263 271 278 283 291 295 295 297 301 302 304 304 303 302 303 305 303 304 304 306 307 310 306 297 290 283 276 264 258 256 255 256 256 259 257 256 252 250 250 248 246 246 247 246 249 260 270 264 269 270 268 266 267 268 272 275 275 277 278 279 279 282 283 282 286 284 282 285 290
276 259 241 228 221 218 215 213 212 211 204 196 202 211 214 219 234 247 254 260 275 289 291 291 297 304 307 306 306 306 306 306 308 306 303 302 308 313 314 315 308 297 284 274 265 262 264 259 257 255 255 252 253 252 250 248 246 244 241 242 245 250 235 213 234 246 251 257 261 262 262 266 270 274 277 279 280 282 285 285 284 286 289 292 295 292 327
263 247 225 223 223 219 217 212 208 199 190 191 200 209 212 223 236 245 259 277 283 284 287 294 302 305 306 307 309 309 308 307 307 303 302 307 312 318 317 318 318 307 281 267 264 261 257 257 257 256 253 250 249 247 243 242 241 237 236 239 247 247 253 242 242 253 255 255 259 260 265 264 266 268 274 278 280 283 284 282 284 286 285 289 288 343 32
257 242 255 238 221 213 203 195 190 184 186 194 196 197 203 213 229 259 274 275 279 286 294 302 303 304 305 312 313 312 310 310 311 313 312 311 312 317 322 322 329 332 307 275 270 268 264 262 261 261 261 262 264 264 259 248 239 237 238 242 247 251 251 248 238 244 250 254 255 255 255 263 266 268 271 274 279 283 284 284 285 288 293 296 309 348 12
299 265 257 253 217 208 189 177 180 178 180 183 187 199 209 229 244 259 283 285 287 295 301 302 304 309 314 316 316 313 311 308 311 315 317 315 312 316 317 325 333 337 348 359 358 350 341 328 309 294 282 270 263 257 247 243 244 244 240 239 244 249 252 252 252 249 250 251 253 257 260 259 260 261 265 272 277 281 284 287 293 300 303 308 322 334 336
346 295 248 209 189 181 171 176 176 180 181 192 194 192 200 212 243 262 262 277 297 300 302 304 310 317 320 324 317 315 313 313 315 317 318 323 322 319 316 322 337 344 338 344 359 354 347 341 339 340 336 313 291 267 256 252 246 244 243 245 246 248 249 253 255 254 252 252 254 256 257 258 264 266 268 272 277 281 287 293 299 304 300 306 321 332 323
296 9 331 214 172 162 155 154 157 159 172 171 169 186 209 203 231 262 263 263 290 305 307 311 315 320 322 326 321 317 317 317 317 318 317 319 325 322 317 323 345 345 337 337 343 341 337 328 340 335 323 310 307 298 291 276 259 256 254 249 246 248 253 254 252 250 249 246 250 251 254 259 256 256 257 262 268 279 289 295 299 300 303 318 334 337 336
114 70 23 34 181 142 147 152 141 145 149 155 173 186 204 224 242 254 263 291 304 315 318 318 321 322 323 322 321 322 324 323 320 319 317 318 327 326 325 334 343 339 334 324 324 330 325 331 335 332 319 309 302 299 289 286 279 269 261 259 253 253 253 256 258 253 247 245 243 245 247 250 253 256 254 254 260 274 287 290 290 297 305 322 337 350 352
140 144 182 214 170 180 159 138 138 139 151 159 163 141 152 297 243 244 280 306 319 323 321 327 329 325 326 326 328 333 335 333 329 325 322 321 327 332 329 340 347 337 314 314 330 328 328 332 329 322 313 307 299 292 288 284 276 264 257 254 254 252 256 257 258 254 250 244 245 244 245 246 249 250 247 248 252 255 256 289 301 305 309 331 4 29 32
167 185 180 191 182 165 156 143 136 136 141 144 154 144 152 212 260 303 316 314 339 346 331 333 331 330 332 334 337 342 343 343 336 336 325 322 330 332 327 333 347 338 332 333 332 330 335 331 328 315 312 311 309 296 288 289 290 281 268 261 257 258 257 256 253 254 252 247 244 244 244 244 244 243 243 241 237 239 252 258 329 350 350 27 45 52 53
216 192 181 193 184 170 153 155 150 151 145 143 145 146 163 181 355 323 2 355 10 349 333 335 341 340 343 341 337 339 346 349 345 341 331 330 335 341 336 334 338 335 332 335 331 328 334 335 328 323 317 316 308 311 309 305 299 278 268 261 259 257 255 253 251 250 252 250 243 240 238 232 227 230 228 223 215 206 194 165 152 71 51 51 53 54 54
233 195 192 183 179 161 152 149 152 145 141 137 130 122 97 56 50 46 56 43 20 353 343 2 9 341 340 338 338 340 343 348 344 346 341 336 343 347 342 340 341 333 334 335 329 333 336 332 333 328 326 320 312 316 316 304 288 280 274 266 258 258 256 259 253 251 251 256 256 245 234 227 224 203 192 189 185 177 170 153 123 94 85 76 69 62 63
283 208 177 177 167 156 147 147 154 146 144 147 145 124 112 111 110 114 90 63 26 24 21 358 360 344 340 345 345 342 341 345 350 345 341 330 349 10 350 343 344 342 344 340 337 336 336 332 335 334 330 327 323 321 311 295 287 283 275 277 279 269 256 250 250 246 244 239 239 233 223 211 197 184 178 169 165 157 154 145 128 113 106 94 86 84 81
281 226 163 161 158 152 146 143 142 151 156 147 139 131 130 123 120 99 76 58 62 40 359 360 358 355 356 350 342 344 348 354 349 347 339 339 341 7 1 347 348 353 359 352 344 344 338 334 337 338 334 331 327 321 309 306 306 300 299 292 279 284 288 279 251 250 239 226 222 219 199 181 177 174 171 163 155 153 152 137 132 124 115 104 97 91 86
272 221 181 168 158 152 155 150 157 164 150 135 135 139 136 130 108 83 71 83 57 19 16 9 1 359 1 351 344 348 348 352 350 347 346 357 353 4 4 360 1 2 5 359 349 350 342 339 343 343 341 342 339 337 331 329 331 335 334 330 325 344 64 66 58 58 64 82 113 131 118 121 135 148 156 143 137 136 133 130 123 118 113 109 104 97 92
253 235 206 175 162 151 152 151 150 146 142 141 137 138 142 132 120 112 103 86 74 44 28 9 12 7 3 344 341 351 351 355 359 1 360 13 12 3 8 8 8 8 8 6 357 356 350 353 355 355 351 354 4 6 4 356 1 8 14 16 21 32 38 44 69 110 98 74 70 75 96 105 109 117 119 129 127 122 121 121 120 115 113 109 105 101 97
228 211 188 156 132 126 134 141 150 148 146 146 146 147 149 165 155 125 124 89 66 51 38 24 26 23 9 14 7 3 360 351 3 15 4 10 9 11 14 13 13 12 15 15 12 4 4 5 5 7 6 6 10 14 24 26 22 26 36 45 41 45 49 57 53 46 55 64 59 67 73 75 77 80 94 103 111 115 119 116 113 111 109 104 99 94 91
227 195 145 137 134 139 140 154 158 154 149 146 138 146 150 147 125 110 115 121 92 76 53 42 26 27 20 18 22 22 12 3 357 16 10 10 12 11 12 18 17 15 17 20 19 13 16 18 19 20 20 21 9 359 12 20 19 22 23 32 46 52 58 65 63 65 63 61 64 59 59 64 74 83 84 85 101 108 109 106 107 103 102 97 94 89 85
187 142 132 138 138 148 156 160 152 147 139 139 143 143 139 137 123 109 87 59 49 61 59 52 36 20 22 31 20 20 28 27 18 15 14 16 16 18 22 24 26 23 21 22 26 17 20 25 29 35 33 29 20 10 9 22 23 21 20 23 32 43 44 37 36 39 50 63 64 58 70 69 65 66 79 83 91 90 93 90 89 90 90 88 85 80 77
125 123 124 125 145 152 159 154 148 140 140 143 138 138 153 155 119 88 78 67 50 43 40 38 27 21 12 16 16 25 30 32 33 29 30 25 23 25 24 28 27 27 28 27 27 25 23 27 26 31 39 37 29 26 20 18 25 26 22 21 20 23 35 50 54 55 55 43 40 52 57 49 45 75 81 77 79 82 88 85 81 77 77 77 76 77 76
89 104 123 146 142 126 131 133 129 137 140 139 137 149 150 116 89 73 50 40 48 44 31 32 23 19 10 16 17 29 24 29 39 38 32 33 29 30 26 26 31 28 26 29 30 28 22 22 26 28 30 38 43 39 32 27 23 26 34 33 26 19 25 34 42 48 55 60 57 48 46 46 53 58 60 59 66 61 74 79 78 79 77 75 73 73 72
113 121 134 125 119 135 145 138 135 142 139 149 149 154 142 126 117 101 82 46 38 43 28 20 35 31 16 45 40 34 31 27 30 38 41 37 34 31 32 24 21 28 27 28 32 31 23 25 30 33 34 36 44 49 47 38 29 27 35 39 34 29 34 31 30 38 45 55 58 57 61 54 43 58 65 56 60 67 72 75 81 82 80 79 78 78 78